Accueil
METAR-TAF:

METAR-TAF

Aéroports :

Smith Field

Siloam Springs, Arkansas, États-Unis

latitude: 36-12N, longitude: 094-29W, altitude: 300 m

Observation

Le bulletin a été fait il y a 49 minutes, à 18:56 UTC
Vent 14 kt de sud avec des rafales jusqu'à 25 kt
Température 21°C
Humidité 46%
Pression 1013 hPa
Visibilité: 16.1 km
Quelques nuages à une hauteur de 6500 ft

METAR: KSLG 021856Z AUTO 17014G25KT 10SM FEW065 21/09 A2990 RMK AO2 PK WND 14026/1822 SLP118 T02060089 TSNO $

Heure: 14:45 (19:45 UTC)


TAF: absent

Observations et prévisions météorologiques de plus de 4000 aéroports (messages METAR et TAF).

Les stations disponibles sont représentées par des disques jaunes et rouges sur la carte.

Passer la souris dessus pour voir le nom de la station.

Cliquer dessus pour voir les observations et prévisions météorologiques.

Pour changer de carte: cliquez sur les boutons verts avec une croix noire pour zoomer, sur le bouton vert avec un tiret pour effectuer un zoom arrière, ou sur les flèches vertes pour les cartes adjacentes.


METAR-TAF: